ECMWFFLT1_925_thetae_162.txt.gz
Theta_e
340 340 340 340 339 338 337 337 336 335 334 334 334 334 334 334 334 335 336 337 338 338 337 337 337 337 337 336 336 336 337 337 337 336 335 335 335 335 335 336 336 336 336 335 335 335 335 335 336 336 335 335 334 334 334 333 332 331 331 331 331 330 330
340 340 341 340 340 339 339 338 337 336 335 334 334 335 335 335 335 334 335 336 337 337 337 336 337 337 338 337 337 337 337 337 338 338 337 336 336 336 336 336 337 336 336 336 336 336 336 335 335 336 337 336 335 334 334 333 333 332 331 332 331 331 330
340 340 341 341 341 340 340 339 339 338 337 336 335 335 336 335 335 335 335 335 336 336 336 336 337 338 338 338 338 338 338 338 338 339 339 338 337 337 337 337 337 337 336 336 336 337 338 337 336 336 336 336 336 336 335 335 334 333 332 332 332 331 330
341 341 341 342 341 341 340 340 339 339 339 338 337 336 337 336 336 335 335 335 335 336 336 336 337 338 338 338 338 339 339 338 338 338 339 339 338 337 338 337 337 337 337 337 337 338 338 338 337 336 337 336 335 336 336 336 335 333 332 332 332 332 331
341 342 341 341 341 341 341 340 340 340 340 340 339 338 338 337 337 336 336 335 336 336 337 337 337 337 338 338 338 339 339 338 338 337 338 337 337 337 338 338 338 337 338 338 338 338 338 339 338 338 338 337 337 336 336 336 335 334 333 332 332 331 331
342 342 342 341 341 341 341 341 341 341 341 341 341 340 339 338 337 337 337 336 337 337 338 338 337 337 337 338 338 338 338 338 338 337 336 336 336 336 337 337 338 338 337 338 338 338 338 339 339 340 338 335 336 337 335 335 335 334 333 332 331 331 331
342 342 342 341 341 341 341 342 342 341 341 341 342 341 340 338 338 337 337 337 337 337 338 338 337 337 337 338 338 338 338 338 337 337 336 336 336 336 336 337 337 337 338 338 339 339 338 339 339 339 338 336 337 337 336 335 335 334 334 332 331 331 330
342 342 342 341 341 341 341 342 342 342 341 341 342 342 340 339 338 338 337 337 337 337 338 338 338 337 338 338 338 338 339 338 338 338 337 337 337 336 336 337 337 337 338 338 339 339 339 339 339 339 339 338 337 338 337 336 336 335 335 333 332 331 330
343 343 342 342 341 341 341 342 342 342 341 342 342 342 341 340 339 339 338 339 338 338 339 340 339 339 339 339 338 339 339 339 339 339 338 338 337 337 337 337 337 337 337 337 337 338 338 339 338 338 339 338 337 337 336 337 336 336 335 334 334 333 332
343 342 342 342 341 340 341 342 342 342 341 342 342 343 342 341 340 340 340 339 340 340 340 340 340 339 339 339 339 339 339 340 339 339 339 338 338 337 337 337 336 336 336 336 336 336 337 337 338 338 338 338 337 336 336 336 336 336 337 335 334 334 333
342 342 342 343 342 342 341 341 342 343 342 342 342 343 342 341 341 340 340 340 340 340 340 340 340 339 339 339 339 339 339 339 339 339 338 338 337 336 336 336 336 335 336 336 336 336 336 336 336 336 337 337 337 337 337 336 336 336 337 336 335 334 334
342 342 342 342 343 342 341 340 340 342 342 342 342 342 342 341 341 341 341 340 340 340 340 340 340 339 339 339 340 340 339 339 339 339 338 338 337 336 335 335 335 335 336 336 336 336 337 336 334 334 336 337 337 337 337 337 336 335 336 337 337 335 334
343 342 342 342 343 343 342 340 340 340 340 342 341 341 341 340 341 341 340 340 340 340 340 340 339 339 339 340 339 339 339 339 339 339 339 338 337 336 335 335 335 334 335 335 335 336 336 335 334 334 335 336 336 336 337 337 337 336 335 336 337 336 335
343 343 342 339 339 341 343 342 341 340 340 341 341 340 341 340 340 341 340 340 340 340 340 340 340 339 339 340 339 339 339 339 339 339 338 338 338 337 335 335 335 334 334 334 334 334 334 334 333 334 334 335 335 336 336 337 337 337 336 335 335 335 335
343 344 344 337 334 338 342 343 342 341 340 340 340 340 340 340 340 341 340 339 340 341 340 341 341 340 340 340 340 340 339 339 339 338 338 338 338 337 336 335 335 334 334 334 333 333 333 333 333 333 333 334 334 335 336 337 337 338 337 336 335 335 334
343 344 345 341 338 340 342 342 342 342 340 339 339 339 339 339 340 340 339 338 339 340 341 341 341 340 340 340 340 340 339 339 339 339 339 338 338 338 337 337 336 335 334 334 334 334 334 333 333 333 333 333 333 334 334 336 337 337 337 337 336 335 335
342 343 344 343 343 343 342 341 342 342 340 339 338 339 339 339 339 339 339 339 339 340 341 341 341 340 340 340 340 340 340 339 339 339 339 338 338 338 338 338 337 336 335 335 335 335 335 334 334 334 333 333 333 333 334 334 336 336 336 337 336 336 335
342 342 343 343 344 343 342 341 341 341 340 339 338 338 338 339 339 339 339 340 340 340 341 341 341 340 340 340 339 340 340 339 339 339 339 339 338 338 338 338 338 337 336 336 336 336 335 335 335 334 334 334 333 333 333 334 335 335 336 336 336 336 336
343 343 343 343 343 343 341 340 341 341 340 339 338 338 338 338 339 339 339 339 339 340 339 339 340 340 340 340 339 339 339 340 339 339 339 339 338 338 338 338 338 338 337 337 337 337 336 336 336 335 335 334 334 333 334 334 335 335 336 336 336 336 336
341 341 343 343 342 342 342 341 341 341 340 340 339 339 339 338 338 338 338 338 338 339 339 339 340 340 340 340 339 339 339 339 339 339 339 339 339 338 338 338 338 338 337 337 338 338 337 337 336 336 335 335 335 334 335 335 335 334 335 336 336 336 336
336 337 341 343 342 342 342 341 342 341 340 340 340 339 339 338 337 337 337 337 337 337 338 339 339 340 340 339 339 339 339 339 339 339 339 339 339 339 338 338 338 338 338 338 338 338 338 337 337 337 336 336 335 335 335 335 335 335 335 335 335 335 335
333 334 339 342 341 342 342 341 341 341 340 340 341 340 339 338 337 337 336 337 337 337 338 339 339 339 340 340 340 339 340 340 340 339 339 339 339 339 339 338 338 338 338 338 338 338 338 337 337 337 337 336 336 336 336 336 336 335 335 335 335 335 335
331 331 337 342 341 341 341 341 341 341 340 340 340 340 338 337 337 337 336 336 336 337 338 339 339 339 339 340 340 339 340 340 340 339 339 339 339 339 339 339 339 339 338 338 337 337 337 337 337 338 338 338 337 336 336 336 336 336 335 335 335 334 335
331 328 330 337 340 341 341 340 340 340 340 340 339 339 338 337 338 338 336 335 335 336 338 339 338 338 338 338 339 339 339 339 340 340 339 339 339 339 339 339 339 339 338 338 338 337 337 337 336 337 337 337 337 337 337 337 337 337 336 336 335 335 335
332 329 330 334 338 340 340 338 338 339 340 339 339 339 339 339 339 338 337 337 337 337 338 338 337 337 337 338 338 338 339 339 339 339 339 339 339 339 339 339 339 339 339 338 337 337 337 337 336 336 336 336 336 337 337 337 337 338 338 337 336 336 336
329 329 331 332 334 337 338 336 335 336 338 339 339 339 339 339 339 338 338 339 339 339 339 338 337 337 336 337 337 337 338 339 339 339 339 339 339 339 339 339 339 339 339 338 337 337 337 337 336 336 336 336 336 336 336 336 336 337 337 338 337 337 337
329 328 329 330 329 331 334 334 332 332 336 339 339 339 339 339 339 339 339 339 339 339 339 339 338 337 337 337 337 337 337 339 339 339 340 340 340 340 340 340 340 340 340 339 338 337 337 337 337 337 336 336 336 335 335 335 335 335 336 336 337 337 337
329 328 328 330 330 330 331 333 335 335 337 339 339 339 340 340 339 339 339 339 340 340 340 339 339 338 337 338 337 336 336 338 339 339 340 340 341 341 341 341 340 340 340 341 340 338 338 338 338 338 337 337 336 335 335 335 335 335 335 334 335 336 337
328 328 327 330 332 332 330 331 335 337 336 336 337 338 339 338 338 339 339 340 340 340 340 340 340 339 338 338 337 336 336 337 338 339 340 340 340 341 340 340 340 341 341 342 341 338 337 338 339 339 339 338 337 336 335 335 335 334 334 334 334 335 335
326 328 329 331 332 332 331 331 334 335 335 335 335 336 337 338 339 339 339 340 340 340 341 340 340 340 339 338 337 336 335 336 338 339 339 339 339 340 340 340 340 340 341 341 341 340 338 338 340 340 340 340 339 338 337 336 336 335 334 334 334 334 334
323 326 328 330 330 330 331 331 332 332 334 337 338 337 338 340 340 340 339 340 341 340 341 341 341 341 340 339 338 336 335 336 337 338 338 338 338 338 339 339 339 339 340 341 341 340 339 338 339 340 341 340 340 339 339 338 337 336 335 335 334 334 334
320 322 325 328 330 331 331 332 332 331 330 333 338 339 340 339 340 339 340 340 340 340 340 341 340 340 340 339 338 336 336 337 337 337 337 338 338 338 338 338 338 338 338 339 340 340 340 338 338 340 341 341 340 340 340 339 339 338 337 336 334 333 333
317 320 322 325 328 330 331 332 333 333 331 331 334 335 337 338 339 339 340 340 340 340 340 340 340 340 339 339 339 337 336 337 336 337 337 338 339 339 338 337 338 338 338 338 338 339 340 339 338 339 341 341 340 340 340 340 340 339 338 335 333 333 332
315 317 319 322 325 328 329 330 331 332 333 333 333 332 334 337 338 338 338 339 339 339 340 340 339 339 339 339 339 337 337 337 337 337 337 338 339 339 338 337 338 338 338 338 338 338 339 339 338 338 339 340 340 340 340 340 341 340 338 336 335 334 334
313 315 317 319 322 325 327 329 330 331 332 334 334 334 335 336 336 337 337 337 338 338 338 338 338 338 338 338 338 338 337 336 337 337 338 339 339 338 338 338 338 339 339 338 338 338 338 338 338 338 338 339 339 339 339 339 340 339 338 337 336 337 337
311 313 315 317 320 323 325 327 329 330 331 332 333 334 334 335 335 336 336 336 336 336 336 336 336 337 337 338 338 337 336 336 336 336 338 339 339 338 338 339 338 338 338 338 339 339 338 338 337 337 337 338 338 338 338 338 338 338 338 337 337 337 337
308 311 313 315 318 321 323 325 327 329 329 331 332 332 333 334 334 335 335 335 335 335 335 335 335 335 336 336 336 336 336 335 335 335 336 338 339 339 339 339 338 338 338 338 339 339 339 338 338 337 337 337 337 337 337 335 335 336 336 336 337 337 337

ECMWFFLT1_925_thetae_168.txt.gz
Theta_e
336 337 338 336 337 339 337 337 338 336 336 336 336 336 336 336 337 338 337 339 340 340 339 339 339 339 340 339 338 337 337 337 336 336 336 336 335 334 334 334 334 334 333 336 339 340 343 344 341 339 338 336 336 336 336 336 335 335 336 336 335 335 334
336 336 337 337 337 338 337 337 338 337 336 336 336 336 336 336 336 337 337 338 339 340 339 339 339 340 340 339 338 338 337 337 336 335 335 336 336 335 335 334 334 334 333 334 337 338 340 342 342 341 339 337 337 336 335 336 335 335 335 335 335 335 334
336 336 337 338 337 338 337 336 337 338 336 336 336 335 336 336 336 337 337 338 339 340 340 340 339 340 340 340 339 338 338 338 337 336 336 336 337 336 335 335 335 334 334 336 338 337 337 339 340 339 338 339 339 338 336 335 335 335 335 335 335 335 334
335 336 338 339 337 337 338 337 337 338 338 337 337 336 336 336 336 336 337 338 339 339 339 340 340 340 340 340 339 338 338 338 338 338 337 335 337 337 335 335 335 334 334 337 336 335 336 338 341 340 338 338 339 338 337 336 335 335 335 335 335 334 334
335 336 338 338 337 337 338 337 337 337 338 338 338 338 337 337 336 336 337 337 338 338 339 339 340 340 340 339 339 338 338 338 338 338 338 336 336 338 337 335 335 334 334 336 334 333 335 338 341 342 339 339 340 338 336 337 337 336 337 336 335 334 334
336 337 337 338 337 336 337 338 337 337 337 338 339 339 338 337 337 336 337 337 338 338 338 339 340 340 339 338 338 339 339 339 338 338 338 338 337 338 338 336 336 335 334 334 333 333 336 338 340 341 339 340 340 338 337 337 337 337 337 337 335 334 334
336 336 337 337 337 336 336 336 337 337 337 338 339 339 339 338 337 336 337 337 337 338 338 338 340 340 339 338 338 339 339 339 338 338 338 339 337 338 339 338 337 336 336 335 335 336 338 338 340 340 340 342 340 337 337 337 336 337 337 337 335 334 334
337 337 337 337 337 336 336 336 336 337 337 338 339 339 338 338 337 336 336 336 336 337 338 337 338 340 339 338 338 338 339 339 338 338 338 339 339 338 339 339 339 338 338 339 339 339 339 339 340 339 340 343 343 340 340 338 337 337 337 337 336 335 335
335 335 336 336 336 335 335 336 336 337 338 338 338 339 339 338 337 336 336 337 336 336 337 337 337 339 339 338 338 338 339 340 339 339 338 339 340 339 339 340 340 340 340 341 340 340 340 339 340 339 339 342 344 344 343 342 340 339 337 337 336 335 334
334 335 336 336 336 335 335 336 336 336 337 338 338 339 339 338 338 337 337 337 337 336 337 337 337 338 339 338 338 338 339 339 340 340 339 339 339 340 339 339 340 340 340 340 340 340 340 339 339 340 339 340 340 343 344 344 342 340 338 337 336 335 333
335 335 335 336 336 335 334 335 336 336 336 338 338 338 339 338 338 338 337 337 337 337 337 338 338 338 338 338 338 338 338 339 340 340 340 340 339 339 339 339 339 339 339 339 340 339 339 339 339 339 340 340 339 340 342 343 342 340 338 338 337 335 334
337 336 335 335 335 334 333 335 336 336 337 338 337 337 339 339 339 338 338 338 338 338 337 338 338 337 338 338 338 338 338 339 339 340 340 340 340 340 339 339 339 338 338 338 339 339 339 339 339 339 340 340 340 339 339 341 342 341 338 338 337 335 335
336 338 336 334 335 335 334 334 336 337 338 338 337 338 339 339 339 339 339 339 339 339 338 338 338 338 338 338 338 338 338 339 340 340 340 340 340 340 340 339 338 338 338 338 338 338 339 339 339 339 340 339 339 339 338 340 342 341 339 338 337 336 336
333 337 337 334 333 335 335 334 335 336 338 338 337 337 338 338 338 338 338 338 339 340 339 339 339 338 338 338 338 338 338 339 340 340 340 340 339 340 339 339 338 338 338 338 338 338 338 339 339 338 339 339 338 338 338 338 340 340 339 338 337 337 337
331 334 337 335 332 332 334 335 334 335 336 337 337 336 336 337 337 338 338 337 337 339 339 340 339 339 339 339 338 339 338 339 339 340 340 340 340 339 339 339 338 338 338 338 338 338 337 338 339 339 338 338 338 337 337 337 338 338 338 338 338 338 338
330 332 335 337 336 334 335 337 337 335 333 335 337 337 336 336 336 338 339 338 337 338 339 340 340 340 340 339 339 339 339 338 339 339 339 339 339 339 339 339 339 338 338 338 338 337 337 337 337 338 338 337 337 337 336 336 337 337 337 338 338 338 338
329 331 334 336 338 337 334 334 337 336 333 334 337 337 336 336 335 337 339 339 338 338 338 339 341 340 340 339 339 339 340 340 340 339 339 339 340 339 339 339 339 338 338 337 338 337 336 337 337 337 338 337 337 336 335 335 336 336 337 337 338 338 338
329 331 333 335 338 338 335 334 334 334 333 334 335 335 336 337 336 336 338 339 339 338 338 339 339 340 339 339 339 339 339 340 340 340 340 340 340 339 339 339 339 339 338 338 338 337 336 336 337 337 337 337 336 335 334 334 335 335 336 337 337 338 337
328 330 332 334 336 336 336 334 332 331 333 334 335 335 335 337 337 337 338 339 339 338 340 339 339 339 340 339 338 338 338 339 340 340 340 340 340 339 339 339 339 339 339 339 338 338 337 336 336 336 336 336 335 335 334 334 334 335 335 336 337 337 338
328 329 330 333 334 334 335 334 332 331 333 336 336 336 336 336 337 337 338 339 338 338 340 340 338 338 339 339 338 337 337 338 338 339 339 339 340 340 339 339 340 340 339 339 339 338 337 336 336 336 336 336 335 334 335 335 335 335 335 335 336 336 337
327 328 329 332 332 332 333 334 333 333 333 335 337 338 338 338 338 338 338 338 338 336 337 340 339 338 339 339 338 337 337 337 337 337 338 338 339 340 340 340 339 340 339 339 339 338 338 337 337 336 336 336 336 335 335 335 335 335 335 335 335 336 336
326 328 329 331 331 330 332 333 332 332 332 334 336 337 339 338 339 340 339 339 339 336 336 339 341 340 340 339 338 338 338 337 337 337 337 338 338 340 340 340 339 339 339 339 339 339 338 338 337 337 337 336 337 336 336 336 335 335 335 336 335 336 336
325 328 329 330 330 329 330 331 330 330 332 333 334 336 337 338 339 340 339 339 340 338 336 337 340 341 341 340 339 338 338 338 338 337 337 338 338 339 340 340 340 340 339 339 340 339 339 339 338 338 338 338 337 337 337 337 337 336 336 336 336 336 336
325 327 328 329 329 327 328 329 328 329 331 333 333 334 335 336 338 339 338 337 337 337 335 335 338 341 341 341 339 339 339 338 338 338 338 338 338 338 339 339 340 340 340 339 339 339 339 339 338 337 338 338 338 338 338 338 338 337 337 336 336 336 336
323 324 326 328 329 328 327 327 326 328 330 331 332 333 333 334 336 336 336 334 333 334 335 336 337 337 339 341 340 339 339 339 339 339 338 338 338 338 338 338 338 339 340 340 340 339 339 339 339 338 337 338 339 339 339 339 339 338 338 337 337 337 337
321 322 323 325 327 327 326 325 326 328 330 331 332 332 332 333 334 334 334 333 333 333 335 336 336 335 337 340 340 340 339 340 340 339 339 338 338 338 338 338 338 339 341 341 340 340 339 339 339 339 338 338 338 338 339 339 339 339 338 338 338 338 338
319 320 321 322 324 326 326 325 327 329 330 330 331 331 332 332 333 333 334 334 333 334 334 335 336 336 336 336 337 339 340 340 339 339 339 339 339 339 338 338 339 340 340 341 341 340 339 339 339 339 339 338 338 338 338 338 339 339 339 338 338 338 338
316 318 320 321 322 324 326 326 327 329 330 330 330 330 331 332 332 333 333 333 333 334 335 335 335 336 335 332 331 334 337 340 341 340 340 340 339 339 339 338 339 340 341 341 341 341 340 339 339 338 338 338 338 338 337 337 338 339 339 339 338 338 338
314 316 318 320 321 323 325 326 325 326 327 329 331 331 331 332 332 332 332 332 332 333 334 335 335 336 336 334 332 331 333 336 338 338 338 339 340 340 340 340 339 340 341 341 341 341 341 340 339 339 339 338 337 337 337 337 338 338 338 338 338 338 338
312 314 316 318 319 321 323 325 325 325 325 327 329 330 331 330 331 331 331 331 332 333 334 334 334 334 336 336 336 334 333 332 332 332 332 334 336 339 340 341 341 341 341 341 341 341 342 341 340 340 340 339 338 337 337 337 337 337 338 337 338 338 338
311 312 313 314 315 317 319 322 324 325 325 326 327 329 329 329 330 331 331 331 331 332 333 333 333 334 336 336 335 334 334 334 333 331 331 332 333 336 336 337 338 339 340 341 342 342 342 342 341 340 341 341 341 340 339 339 338 338 338 338 338 337 337
308 309 310 310 312 313 315 319 322 324 326 327 328 329 328 327 329 331 332 332 332 332 333 333 334 334 334 335 335 334 334 334 333 332 332 332 333 334 335 335 336 336 337 338 339 341 343 342 341 341 341 340 340 341 341 340 340 340 339 339 338 338 337
306 306 307 308 309 311 312 314 318 321 324 326 328 328 327 327 328 329 330 331 331 331 332 332 333 333 333 335 335 334 334 334 333 333 333 333 333 334 334 335 334 335 337 338 337 338 341 342 342 341 339 337 338 341 342 341 341 341 340 340 339 338 338
303 304 304 306 307 308 309 310 312 316 320 324 326 328 329 328 328 329 329 330 331 331 330 331 331 331 332 334 334 333 333 333 334 334 333 333 333 334 336 336 335 334 335 337 337 337 339 342 341 338 335 335 338 341 342 342 341 340 339 339 338 337 337
302 302 303 304 305 305 307 308 309 311 315 320 324 327 328 328 328 329 331 331 331 330 329 330 330 330 331 333 333 333 333 333 334 334 332 332 332 335 336 337 335 335 336 336 338 338 339 341 341 336 333 337 340 340 341 341 339 336 337 338 337 334 334
300 301 301 302 303 304 305 306 308 310 312 316 321 325 328 329 330 331 332 332 332 332 331 330 331 331 331 332 332 332 332 333 334 333 332 332 334 336 338 335 333 333 334 335 336 337 337 339 340 338 337 338 340 340 339 339 339 337 337 338 337 334 333
299 300 301 301 302 303 304 305 306 308 311 314 319 323 325 329 332 333 332 332 333 332 332 331 331 331 332 331 331 331 331 331 332 331 330 332 334 335 335 333 331 331 332 333 334 336 336 336 337 338 338 338 339 339 338 338 339 339 338 338 338 337 337

ECMWFFLT1_925_thetae_174.txt.gz
Theta_e
335 335 336 336 335 335 334 333 335 336 337 337 337 338 338 337 337 338 338 339 339 339 339 339 338 338 338 338 337 337 336 336 335 335 334 334 333 333 333 333 331 331 330 332 333 332 337 341 338 335 334 333 334 334 335 336 336 336 336 336 336 336 335
333 333 335 336 337 336 335 335 335 335 336 336 337 337 337 337 337 336 337 338 339 339 339 339 339 338 338 338 338 337 337 336 336 336 335 334 334 333 333 333 332 332 331 332 332 331 333 337 339 339 336 333 334 334 333 335 335 336 336 336 336 336 335
331 332 333 335 337 337 336 335 335 335 335 335 336 337 337 337 337 336 337 337 338 338 338 338 338 338 338 338 338 338 337 337 336 336 335 334 334 333 333 333 332 332 331 332 332 332 332 333 336 338 335 334 335 334 333 333 333 334 335 336 336 336 336
330 331 332 334 335 336 336 336 336 335 336 336 335 336 336 337 337 336 336 337 337 338 337 337 337 337 337 338 338 338 337 337 336 336 335 335 334 333 333 333 333 332 331 331 332 332 332 333 336 337 334 334 335 333 334 334 333 333 333 334 335 335 336
326 330 332 333 333 335 336 336 336 336 336 336 336 336 336 336 336 336 336 336 336 337 337 337 337 337 337 338 338 338 338 337 337 337 336 335 334 334 333 333 333 333 332 331 331 331 332 332 334 335 333 334 336 335 334 335 334 334 334 334 334 335 336
320 325 329 332 332 333 334 335 335 336 336 336 335 335 336 336 336 335 335 336 336 336 336 336 336 336 337 337 338 338 338 338 337 337 336 336 335 334 334 333 333 333 332 332 331 331 332 331 332 333 332 334 336 335 335 335 335 336 335 335 335 335 336
314 319 325 329 331 332 332 333 334 335 335 336 335 335 336 336 336 336 336 335 335 336 336 336 336 336 336 337 338 338 338 338 338 337 337 336 336 335 334 334 334 333 333 332 331 331 331 331 331 331 332 333 333 332 334 335 335 335 336 335 335 335 335
312 316 320 325 329 331 332 332 333 333 334 335 336 336 336 336 336 336 336 336 335 335 335 336 336 336 337 337 337 338 338 338 338 338 337 336 336 336 335 334 334 334 333 333 332 331 331 331 331 331 331 334 335 335 335 335 334 335 335 335 336 335 335
311 313 316 319 324 328 331 332 332 332 333 334 335 335 336 336 336 336 336 336 335 335 335 335 335 336 336 337 337 337 337 338 338 338 338 337 337 336 336 335 334 334 334 334 333 333 332 331 331 331 331 332 334 336 338 338 336 335 335 335 336 336 335
310 311 313 316 319 323 327 331 332 333 333 333 334 335 335 336 336 336 336 336 336 335 335 335 335 335 336 337 337 337 337 337 338 338 338 337 337 336 336 336 335 335 334 334 334 334 334 332 331 331 331 331 332 334 336 339 337 335 336 336 335 336 336
309 310 312 315 316 318 322 327 330 333 333 333 334 334 334 336 336 337 337 337 336 335 335 334 335 336 336 336 336 337 337 337 338 338 338 338 337 337 337 336 336 336 335 335 334 334 334 334 333 332 331 331 332 332 333 336 336 334 334 335 335 336 336
309 310 312 313 313 315 317 321 325 330 332 333 333 334 334 335 336 337 337 337 336 335 335 335 335 336 336 336 336 336 336 337 338 337 337 337 337 337 337 337 336 336 336 335 335 334 334 334 334 333 332 332 332 333 332 334 335 334 333 335 336 336 336
308 309 310 310 312 313 315 317 321 326 329 331 333 333 334 334 335 336 336 337 336 336 336 336 335 335 336 336 336 336 336 336 337 337 336 336 336 337 337 337 337 336 336 336 335 335 335 334 335 334 333 332 332 333 333 333 335 334 333 334 335 335 336
307 308 309 310 311 312 314 316 319 324 327 330 332 333 333 334 334 335 336 336 337 337 336 336 336 335 334 335 336 336 336 336 336 336 336 335 336 336 337 337 337 336 336 336 336 336 335 335 335 335 335 334 333 333 334 334 334 335 335 335 336 336 336
307 308 309 310 311 312 314 315 318 322 327 329 331 332 333 333 334 335 335 336 337 337 337 336 336 336 333 333 335 335 335 335 335 335 335 335 335 336 337 337 337 337 337 337 336 336 336 336 336 336 336 336 335 335 335 335 334 334 335 335 336 336 336
307 308 308 309 310 311 314 315 317 321 326 329 330 331 332 333 333 334 335 336 336 336 337 337 337 336 334 334 335 335 335 335 335 335 335 335 336 336 337 337 337 337 337 336 336 336 336 336 336 336 336 337 337 336 337 337 336 336 335 336 336 336 336
306 307 307 308 309 311 313 315 316 319 323 327 329 330 332 333 333 334 334 335 336 335 336 337 337 337 336 335 335 335 335 335 335 335 335 335 336 336 336 337 337 337 337 336 336 336 336 336 336 336 336 336 337 337 337 337 337 337 336 336 336 336 337
305 306 307 308 310 312 313 314 316 318 322 326 329 330 331 332 332 333 334 335 335 335 336 336 337 337 336 336 336 335 335 335 335 335 335 335 335 335 336 336 337 337 337 336 336 336 336 336 336 336 335 336 337 337 337 337 337 337 337 336 336 337 336
305 306 307 308 310 312 313 314 316 318 322 327 329 329 330 332 332 333 334 334 335 335 336 336 336 336 336 336 336 335 335 335 335 334 335 335 335 335 336 336 336 337 337 337 337 336 336 336 336 336 336 335 336 336 337 337 337 336 336 336 336 336 336
306 307 308 309 311 313 314 315 317 320 323 327 328 329 329 330 331 332 333 334 335 335 336 336 336 336 336 336 336 335 335 335 335 335 335 335 335 335 335 336 336 337 337 337 337 337 336 336 336 336 336 336 335 335 335 336 336 336 336 336 336 336 335
307 308 309 311 312 313 314 315 317 320 325 327 327 328 329 329 330 331 332 333 334 334 335 336 336 336 336 336 335 335 335 335 335 335 335 335 335 335 335 336 336 336 337 337 337 337 337 336 336 336 336 336 336 335 335 335 335 335 335 335 335 335 335
308 308 310 310 310 311 312 312 314 318 323 326 326 326 327 328 329 330 331 332 333 334 335 335 335 335 335 335 335 335 335 335 335 335 335 335 335 335 335 336 336 336 336 337 337 337 337 337 336 336 336 336 335 335 335 335 334 334 334 334 334 334 333
306 307 308 309 309 309 310 311 312 315 319 323 325 325 325 327 329 331 331 331 331 332 333 334 335 335 335 335 335 335 335 335 335 335 335 335 335 335 335 336 336 336 336 337 337 337 337 337 337 337 336 336 335 335 335 334 334 333 333 333 333 333 332
304 305 306 307 307 308 309 309 310 310 313 316 319 322 324 325 327 329 331 332 332 332 333 333 334 334 335 335 335 335 335 335 335 335 335 336 335 335 335 335 335 335 336 337 337 337 337 337 337 337 337 337 336 335 335 334 334 334 333 333 333 333 332
303 303 304 305 306 307 307 307 308 308 309 310 312 315 319 324 326 326 328 329 331 332 333 333 333 333 334 335 335 335 335 335 335 335 335 335 335 335 335 335 334 335 335 335 336 337 337 337 337 337 337 337 337 336 335 335 334 334 333 332 333 333 333
302 302 303 304 304 305 305 305 305 305 306 307 308 310 314 319 324 326 327 327 328 330 331 333 333 333 334 334 335 335 336 336 336 335 335 335 335 335 335 335 334 334 334 335 335 336 335 335 335 335 336 336 336 337 337 336 335 335 334 333 333 333 333
302 302 302 303 303 303 304 304 304 304 304 305 307 309 310 312 316 322 326 327 328 329 330 332 332 333 333 334 334 335 335 336 336 335 336 336 335 335 335 335 335 334 335 335 334 335 335 334 334 333 333 332 332 332 333 334 334 334 334 333 333 333 333
302 302 302 302 302 302 302 302 302 302 303 304 305 307 307 308 310 314 320 324 326 327 329 330 331 331 332 332 334 334 334 335 335 335 336 336 335 336 335 335 335 335 335 335 334 334 334 335 335 334 333 332 331 330 330 331 331 331 330 330 330 331 333
301 301 301 301 301 301 301 301 301 301 302 303 304 304 305 306 307 309 313 318 324 326 326 328 329 330 330 330 331 333 333 333 334 334 335 335 335 335 335 335 335 335 335 335 335 335 335 334 334 334 334 333 333 332 332 332 332 332 332 331 331 332 333
301 300 300 300 300 300 300 300 300 301 302 302 302 303 303 304 306 307 309 314 320 325 325 326 328 330 331 331 330 331 332 331 331 332 333 334 335 335 335 335 335 335 334 334 335 335 335 334 334 333 333 333 333 333 332 332 332 333 333 334 334 333 334
299 299 299 299 299 299 300 300 300 301 301 301 302 302 303 304 305 306 307 310 315 321 324 325 326 328 330 331 331 331 330 328 329 331 332 333 333 334 334 335 335 334 334 334 335 335 335 334 333 333 333 333 332 331 331 332 332 332 333 334 333 333 333
298 298 298 299 299 299 299 300 301 301 301 301 302 303 303 304 305 306 307 309 311 316 321 324 325 326 328 330 331 332 329 328 328 330 331 331 331 331 332 334 335 335 335 334 334 334 334 334 333 333 334 333 331 330 331 332 333 332 331 331 332 333 334
298 298 298 298 299 299 300 300 300 301 301 302 302 303 303 304 305 306 308 310 311 314 319 323 325 326 327 328 330 331 328 327 328 330 330 330 330 330 331 333 334 334 334 334 335 334 334 334 334 334 334 332 331 332 334 333 334 333 332 331 332 333 334
297 298 298 297 298 299 300 300 301 301 301 301 301 301 302 303 304 306 308 310 312 314 318 321 324 326 327 327 329 329 328 326 327 329 329 329 329 330 331 331 332 333 334 334 334 334 334 335 335 335 335 333 332 334 335 334 334 334 332 331 332 333 333
296 297 297 296 297 298 298 298 298 298 298 297 297 298 299 300 302 304 307 310 313 314 317 320 323 326 327 328 329 329 329 328 328 328 329 329 329 329 330 331 331 332 333 334 334 334 334 335 335 334 335 334 334 334 334 334 334 333 332 331 332 332 332
296 297 297 295 295 295 295 295 295 294 294 294 294 295 296 297 299 301 305 309 313 316 318 320 323 325 326 327 328 328 329 329 329 329 329 329 330 330 330 330 330 331 332 332 333 333 333 334 333 332 332 333 333 333 333 333 333 332 331 331 331 331 331
295 296 296 295 294 294 294 294 293 293 292 292 293 293 295 296 298 300 302 305 311 317 318 320 322 322 322 325 327 328 329 330 330 330 330 330 331 330 330 330 331 331 332 332 332 332 333 333 333 332 332 332 332 332 331 330 331 330 329 329 329 329 330

ECMWFFLT1_925_thetae_180.txt.gz
Theta_e
308 308 308 309 310 311 312 314 318 323 327 329 332 332 333 334 334 334 335 336 336 336 336 336 336 337 336 337 337 336 337 336 334 334 334 334 332 333 332 332 331 331 331 331 331 332 333 334 332 330 330 329 330 330 330 330 331 331 332 332 332 333 334
307 307 307 307 309 310 311 313 314 317 322 326 328 330 331 333 333 334 334 335 335 336 336 336 336 336 336 336 337 336 336 336 335 335 335 334 334 334 333 332 331 331 330 330 329 329 330 331 332 331 330 329 329 329 329 329 329 330 331 331 332 332 333
307 306 306 307 308 308 310 312 312 313 317 321 325 328 329 331 332 333 334 334 335 335 336 336 336 336 337 336 337 336 336 336 336 336 335 335 334 334 333 333 331 330 330 330 329 328 328 329 330 331 330 329 329 329 329 329 329 329 330 330 331 331 331
306 306 306 306 307 308 308 310 311 312 314 316 320 324 328 330 332 333 334 334 334 334 335 336 336 337 337 337 337 336 336 336 336 336 335 335 334 334 333 333 333 332 332 331 330 329 329 329 330 330 330 329 329 330 330 330 330 330 330 330 330 330 330
306 305 305 305 306 307 308 309 309 311 312 313 315 320 325 329 331 332 333 334 334 334 334 334 335 336 337 337 337 336 337 336 336 336 335 334 334 334 334 333 333 333 333 333 332 331 330 330 331 331 331 330 330 330 330 330 330 330 331 330 331 331 331
306 305 305 305 306 307 308 309 309 309 310 311 313 317 321 325 329 332 333 333 333 333 334 333 334 335 336 336 336 336 336 336 336 336 335 335 335 335 334 334 333 333 333 333 333 332 331 331 330 331 331 330 330 331 330 330 330 330 330 330 330 331 331
306 305 305 305 306 307 307 308 308 308 308 311 314 316 317 319 323 327 330 332 333 333 333 333 333 334 334 335 335 335 336 336 336 336 336 336 335 335 335 334 334 334 334 333 333 333 332 331 330 330 331 330 329 330 329 329 329 330 330 331 331 331 331
306 305 305 305 305 306 306 307 307 308 308 311 314 314 314 315 317 321 325 329 331 332 333 333 333 334 334 335 335 335 335 335 335 336 336 336 336 336 335 335 334 334 334 334 333 333 333 332 332 331 331 331 331 331 330 329 329 329 330 330 330 330 330
306 305 305 305 304 305 305 306 307 307 308 309 310 310 311 312 314 317 322 325 328 331 332 333 333 334 334 335 335 335 335 335 335 336 336 336 336 336 336 335 335 334 334 334 333 333 333 333 332 332 331 331 332 333 333 331 330 330 330 330 330 330 330
305 305 305 304 304 304 305 306 306 306 306 306 307 307 309 311 312 314 317 321 325 329 331 332 333 333 334 334 335 335 335 335 335 336 336 335 336 336 336 335 335 335 335 334 333 333 333 333 332 332 332 331 331 332 333 333 332 331 330 330 330 330 330
305 305 304 304 304 304 305 305 305 305 305 306 306 307 308 309 311 312 314 318 323 326 329 331 332 333 333 333 334 334 334 335 334 335 335 335 335 335 336 335 335 335 335 334 334 334 333 333 332 332 332 332 331 331 332 333 333 332 330 330 329 330 330
305 304 304 304 304 304 304 305 305 305 305 306 306 307 308 309 310 311 313 316 320 324 327 329 331 333 333 333 334 334 334 334 335 335 335 335 335 335 335 335 335 335 335 335 334 334 333 333 333 332 332 331 331 331 331 332 332 332 331 331 330 330 330
305 304 304 304 304 304 305 305 305 305 305 306 306 306 307 308 309 310 311 314 318 323 326 327 329 332 333 333 333 334 334 334 334 335 335 335 335 335 335 335 335 335 335 335 335 334 334 333 333 333 332 332 331 331 330 330 331 331 330 331 331 330 331
305 304 303 303 303 304 305 305 306 306 306 306 306 306 306 307 308 309 311 313 317 321 325 327 328 331 332 333 333 333 334 334 334 335 335 335 335 335 335 335 335 335 335 335 335 335 334 334 333 333 332 332 331 331 330 330 330 331 331 331 331 331 331
305 304 303 303 303 304 305 305 306 306 306 306 307 306 307 308 309 310 312 314 316 320 324 327 328 330 331 333 333 333 334 334 334 334 334 335 335 335 335 335 335 335 335 335 335 335 335 334 334 333 333 333 332 332 331 330 331 331 331 331 331 331 331
304 304 302 302 302 303 304 305 306 307 307 307 308 308 308 309 311 312 314 315 317 319 323 326 327 329 330 332 333 332 333 333 334 334 334 334 335 335 335 335 335 335 335 335 335 335 335 334 334 334 333 333 333 332 332 331 331 331 331 331 331 331 331
304 303 302 301 302 302 304 306 307 307 307 308 309 310 310 311 312 313 314 316 319 320 323 326 327 328 329 330 331 331 332 333 333 333 334 334 334 335 335 335 335 335 335 335 335 335 335 335 334 334 334 334 333 333 333 332 332 332 332 332 332 331 331
304 303 302 301 301 302 303 305 305 306 307 309 310 310 310 311 312 315 317 318 320 322 325 326 327 328 329 329 330 331 331 332 332 332 333 333 333 334 334 335 335 335 335 335 335 335 335 335 335 335 335 334 334 334 333 333 332 332 332 332 332 332 332
304 303 302 301 301 301 301 302 303 304 306 308 309 309 309 308 310 314 318 321 322 324 325 327 328 328 329 328 329 330 331 331 332 333 333 332 333 333 333 334 334 335 335 335 335 335 335 335 335 335 335 335 334 334 334 333 333 332 332 332 332 332 332
303 302 302 301 301 301 301 301 302 303 304 306 307 307 307 306 306 309 313 318 323 325 325 326 326 327 327 328 329 329 330 331 331 332 333 333 332 332 332 333 333 334 334 335 335 335 335 335 335 335 335 335 335 334 334 334 334 333 333 333 333 333 333
302 302 301 301 301 301 301 301 301 302 303 305 306 306 305 304 305 306 308 312 319 323 325 325 324 324 325 326 327 328 329 331 331 332 332 333 333 333 332 333 332 333 333 334 334 334 334 334 335 334 335 335 335 335 334 334 334 334 333 333 334 333 334
301 301 301 301 301 301 301 301 301 301 302 303 303 304 304 303 304 304 305 308 312 316 320 322 323 324 325 325 325 327 328 330 330 331 332 333 333 333 333 333 333 332 333 333 333 334 334 334 334 334 334 335 335 334 334 334 334 334 334 334 334 334 334
301 301 301 301 301 301 301 301 301 300 300 301 301 302 302 302 303 303 304 305 307 309 313 317 320 322 323 324 325 325 327 328 330 331 331 332 332 333 334 333 333 333 333 333 333 333 334 334 334 334 334 334 334 334 334 334 334 334 334 334 333 334 334
300 301 301 301 301 301 301 300 300 300 300 300 300 301 301 301 302 302 303 304 305 306 309 312 316 319 320 321 322 322 324 325 327 329 331 331 332 333 333 333 334 334 334 334 334 334 334 334 334 334 334 333 333 334 334 334 334 334 334 334 334 334 334
300 301 301 301 301 300 300 300 299 299 299 299 299 300 300 300 301 301 302 303 303 304 306 308 312 315 317 318 319 319 321 322 324 326 328 330 332 332 332 332 333 334 334 334 334 334 334 334 334 334 334 334 334 334 334 334 334 334 334 334 334 334 334
300 299 299 299 299 299 299 299 299 299 299 299 299 300 300 300 300 300 301 302 302 303 304 305 307 310 314 317 318 318 318 320 322 323 325 328 330 331 332 333 333 334 334 334 334 334 333 333 333 333 334 334 334 334 334 334 334 334 334 334 334 334 334
298 298 298 298 298 299 299 298 298 298 299 299 300 300 300 300 300 300 301 301 302 302 302 303 305 306 309 313 315 316 316 317 319 320 322 325 327 329 331 331 332 333 333 334 334 333 333 333 333 333 333 333 333 333 333 333 334 334 334 334 334 334 334
297 297 298 298 298 298 299 298 297 298 299 299 300 300 300 300 300 301 301 301 301 301 302 302 303 305 306 309 311 313 314 314 315 317 320 321 324 327 328 329 330 331 332 333 333 333 333 334 334 334 333 333 333 333 331 331 333 334 334 334 334 334 334
296 297 297 298 297 298 298 298 297 297 297 298 298 298 299 300 300 300 301 301 301 301 301 302 302 303 305 306 308 309 310 311 312 315 317 319 321 324 326 328 329 330 331 332 332 333 334 334 334 334 333 332 332 332 331 332 333 334 334 334 334 334 335
296 296 297 297 297 297 298 297 296 296 296 295 295 296 296 297 298 298 299 300 301 301 301 301 301 302 303 305 306 308 309 309 310 313 315 317 319 322 324 325 327 329 330 331 331 333 334 334 333 333 333 333 332 332 331 332 333 333 333 334 334 333 334
295 295 295 296 296 297 297 297 296 295 294 294 294 294 294 294 295 295 296 297 298 299 300 300 301 301 302 304 305 307 308 309 310 313 315 316 319 321 323 324 326 327 328 329 330 331 333 333 333 333 333 333 333 333 332 332 332 332 332 333 332 331 331
295 295 295 295 295 296 297 296 295 294 293 293 293 293 293 293 293 293 294 295 296 297 297 298 299 300 301 304 305 306 307 309 311 313 315 317 319 321 323 324 325 326 327 328 329 330 331 333 333 333 333 333 333 333 333 333 333 332 332 332 332 331 330
294 294 294 294 295 295 296 295 294 293 292 292 292 292 292 292 292 293 293 294 295 295 296 297 298 299 302 304 306 306 307 309 311 313 316 317 318 320 322 324 324 325 326 327 328 329 330 332 333 333 333 333 333 334 333 333 333 333 332 332 332 331 331
294 294 294 294 294 295 295 293 292 292 292 291 291 291 291 291 291 292 293 293 294 295 297 298 299 301 302 304 305 306 307 308 310 313 315 317 318 319 321 323 324 325 326 326 328 329 330 332 333 333 333 332 333 333 333 333 333 332 332 331 331 330 330
293 293 293 293 293 294 293 292 291 291 291 291 290 290 290 291 291 292 292 293 295 296 297 298 299 300 301 303 304 306 307 308 310 312 313 315 317 319 321 323 324 325 326 327 327 328 329 331 332 332 333 333 333 333 334 333 331 331 331 331 330 329 329
293 293 293 293 293 293 292 291 291 291 291 290 290 289 290 290 291 291 292 293 294 294 295 296 297 297 298 301 304 306 308 309 310 311 311 313 316 318 320 322 323 324 326 327 327 328 329 330 330 331 332 332 331 330 330 329 329 330 330 330 329 329 329
293 292 292 292 292 292 291 290 290 290 290 289 289 289 289 290 290 291 292 293 293 292 293 294 294 294 296 300 304 306 309 310 310 310 311 313 316 318 319 321 323 325 326 327 327 327 327 327 326 326 327 327 326 325 325 325 327 329 329 329 329 328 328

ECMWFFLT1_925_thetae_186.txt.gz
Theta_e
314 315 315 315 315 316 317 317 317 316 316 317 318 321 323 325 326 328 330 333 334 334 333 333 334 335 335 336 336 335 336 336 335 334 338 339 337 337 338 337 337 337 337 337 337 337 338 337 337 336 336 335 334 335 334 333 333 333 334 335 335 335 335
314 314 314 314 315 316 317 318 318 318 318 318 318 320 322 323 324 325 326 329 331 334 334 333 332 333 335 335 335 335 335 335 335 335 338 339 336 335 337 339 338 337 337 337 337 338 337 338 337 336 337 337 336 336 335 335 335 334 335 336 336 335 334
313 314 314 315 316 316 316 317 318 318 318 318 318 319 319 320 320 321 324 326 329 331 334 334 333 332 333 334 335 335 335 336 336 335 337 339 338 336 335 337 339 339 338 337 338 338 338 338 337 335 337 338 337 338 337 337 337 336 335 335 336 337 336
313 313 314 314 315 315 316 316 317 317 317 318 318 318 318 318 318 319 321 324 327 329 331 333 334 333 333 333 334 335 335 336 336 335 335 337 339 339 336 334 336 339 340 339 338 339 338 338 337 335 336 337 336 337 338 338 338 337 336 336 335 337 337
313 313 313 314 314 314 315 316 316 316 316 317 317 317 317 317 317 318 320 323 325 327 329 330 331 332 333 334 334 335 334 335 335 336 336 336 337 339 338 335 335 336 339 340 339 339 339 339 338 336 336 337 336 336 336 336 337 337 336 335 335 336 337
312 313 313 314 314 314 314 315 315 315 316 316 316 316 317 317 316 317 318 320 321 323 324 326 328 330 332 334 336 335 334 333 334 336 336 336 336 337 337 337 336 335 336 338 340 339 339 340 339 337 337 338 338 337 336 336 336 336 335 334 334 335 336
311 312 312 313 313 313 313 314 314 315 315 315 316 316 316 316 315 315 316 316 317 318 318 321 325 328 330 332 333 334 334 333 334 335 337 337 337 336 336 337 336 336 335 336 338 339 339 340 340 339 339 339 339 338 337 336 335 336 335 334 334 334 335
311 311 311 312 312 313 313 313 314 314 315 315 315 315 315 315 315 314 315 315 315 316 317 318 322 325 328 330 331 333 334 334 335 335 335 336 337 336 336 336 336 337 336 335 337 338 338 339 340 340 340 339 339 339 338 337 336 336 335 334 333 334 334
311 311 311 311 312 312 312 313 313 314 314 314 314 314 314 314 314 314 314 314 314 315 316 317 319 322 324 327 330 332 333 333 335 336 335 335 337 336 335 336 336 336 336 336 335 335 337 339 339 339 340 340 340 339 338 337 337 336 336 335 334 334 333
310 310 311 311 312 312 311 312 312 313 313 313 313 313 313 313 313 313 313 313 314 314 315 316 318 319 321 324 327 329 331 332 333 335 335 336 336 336 335 336 335 335 336 336 335 334 337 339 339 339 339 340 340 339 338 338 337 337 338 335 334 334 334
310 310 310 311 311 311 311 311 311 311 312 312 312 312 312 313 313 313 313 313 313 313 314 315 317 318 319 322 325 327 329 331 333 334 334 335 336 336 335 335 335 335 335 335 335 335 335 338 338 339 339 339 339 339 339 339 338 337 338 337 336 335 334
309 309 309 310 310 310 310 310 310 310 311 311 311 312 312 312 312 312 313 313 313 313 314 314 315 316 318 320 323 326 328 329 331 333 334 335 336 336 336 335 335 335 335 335 335 335 335 336 336 338 339 338 338 338 339 340 338 337 338 339 338 337 336
309 309 309 309 309 309 310 310 310 310 310 311 311 311 312 312 312 312 312 312 312 313 313 313 314 315 317 318 320 323 326 328 329 331 332 333 334 335 335 335 336 335 334 334 335 335 335 335 335 337 339 339 338 338 338 340 339 337 337 339 338 338 337
309 309 309 309 308 308 309 309 309 309 310 310 310 310 311 311 312 312 312 312 312 313 313 314 314 315 316 317 319 321 324 326 328 329 331 332 333 334 334 335 335 335 335 335 335 334 334 336 337 336 337 338 340 338 337 339 340 337 337 339 338 338 337
309 309 308 308 309 309 309 309 310 310 309 309 309 309 310 310 311 311 312 312 312 313 313 314 314 315 316 316 317 319 322 325 326 327 329 331 332 332 334 334 334 335 336 335 335 335 335 337 338 335 335 338 340 338 336 338 339 339 338 338 337 337 337
308 308 308 308 309 309 309 310 309 309 309 309 309 308 309 309 309 310 311 312 312 313 313 313 314 314 316 317 317 318 320 323 326 327 327 329 330 330 332 333 333 334 335 335 335 335 335 336 336 335 337 339 339 336 335 337 339 340 339 338 337 337 337
308 309 309 309 310 310 309 309 309 309 309 308 308 308 308 308 308 308 309 311 312 312 312 313 313 313 314 316 317 318 319 321 324 326 326 328 328 329 330 332 332 333 334 335 335 335 335 336 335 335 336 337 336 335 336 338 339 339 339 338 337 336 336
309 310 310 310 310 310 309 309 309 308 308 308 308 307 307 307 307 307 308 309 310 311 312 312 312 312 313 314 316 318 319 320 322 324 325 327 328 329 330 331 331 332 333 334 335 336 336 335 335 334 335 335 335 336 336 336 337 339 339 338 337 336 336
310 310 310 310 309 309 309 309 308 308 308 308 307 307 307 307 307 307 307 307 308 309 310 311 311 312 312 313 314 316 318 320 322 324 324 325 327 328 329 330 331 331 332 332 334 335 335 336 335 335 335 335 336 338 336 334 336 338 338 337 338 337 337
309 309 309 309 309 308 308 308 308 308 307 307 307 306 306 306 306 306 306 306 307 307 308 310 310 311 312 312 314 315 317 319 320 322 324 325 326 327 328 329 330 331 331 331 332 333 335 336 335 335 336 336 336 338 339 336 335 335 336 337 337 336 336
308 309 309 308 308 308 308 308 307 307 307 306 306 306 306 306 305 306 306 306 306 307 307 308 309 310 311 312 313 314 314 314 316 318 322 324 325 326 327 329 329 329 330 331 331 333 334 335 335 335 336 335 334 336 338 338 336 334 334 336 335 334 335
308 308 308 308 308 308 307 307 306 306 305 305 306 306 306 305 305 305 305 305 306 306 306 307 308 309 310 311 311 310 309 310 312 315 318 322 324 325 327 329 329 329 329 330 330 331 332 333 334 336 336 335 335 334 334 336 337 335 334 334 333 334 335
308 308 308 308 307 307 306 306 305 305 305 304 304 305 305 304 304 304 304 304 305 305 305 306 307 307 307 307 307 306 306 307 308 311 314 318 322 324 325 327 329 329 329 330 330 330 331 331 332 334 334 335 335 334 333 335 336 336 335 334 333 334 335
308 308 307 307 306 306 305 305 305 304 304 303 303 303 303 303 303 303 303 303 304 304 305 305 306 305 305 305 304 304 304 305 306 308 311 315 320 322 323 326 328 329 329 331 331 331 331 330 330 331 331 331 332 332 333 334 333 334 335 334 333 334 336
307 307 307 306 305 305 304 303 303 302 302 302 301 302 302 302 302 302 302 302 303 303 304 304 304 304 304 303 303 302 303 304 305 307 309 313 317 320 322 325 327 327 328 330 330 331 331 331 331 330 330 330 329 329 330 330 330 332 333 335 336 336 336
307 307 306 305 304 303 302 301 301 301 300 300 300 301 301 301 301 301 301 302 302 302 303 303 303 303 302 302 301 301 302 303 304 306 307 310 313 317 320 322 324 325 326 327 329 330 330 330 331 331 331 331 330 330 329 329 329 330 330 333 335 336 335
306 306 305 304 303 302 301 301 300 300 299 299 300 300 300 300 300 300 300 301 301 301 302 302 301 300 300 299 299 299 300 302 303 305 306 308 311 314 318 320 322 323 324 325 327 328 329 330 331 331 331 331 331 331 331 331 330 330 330 331 332 333 333
305 305 304 303 303 302 301 301 300 299 299 299 299 299 299 299 299 299 299 299 300 300 300 300 299 298 298 298 297 297 298 300 302 304 306 309 311 313 316 319 320 321 322 323 324 325 326 328 329 330 331 331 332 332 332 332 332 331 331 331 331 332 332
305 304 304 303 302 302 301 300 300 299 299 299 298 298 298 297 297 298 298 298 298 299 299 299 298 297 297 296 296 297 298 299 301 303 306 308 311 313 315 317 319 320 321 322 323 324 324 325 327 328 329 330 331 332 332 331 332 331 331 331 331 332 332
304 304 303 303 302 302 301 300 299 299 298 298 297 297 296 296 296 296 297 297 297 297 297 297 297 296 296 296 296 297 298 299 300 302 304 307 310 313 315 316 318 319 320 321 322 322 323 324 325 326 326 328 329 330 331 331 332 332 331 330 331 331 332
304 303 303 302 302 301 300 299 299 298 297 297 296 296 296 296 296 295 295 295 295 296 296 296 296 296 295 295 295 296 297 298 300 302 303 306 309 312 314 315 316 317 319 320 321 321 322 323 324 325 325 326 327 328 328 329 330 331 331 331 331 331 331
303 302 302 302 301 300 300 299 298 298 297 296 296 296 295 295 295 295 294 295 295 295 295 295 295 295 295 294 294 295 296 296 298 300 302 305 308 311 313 314 315 316 317 317 318 318 320 321 323 324 325 326 327 327 327 328 329 330 331 332 331 331 331
302 302 302 301 300 300 299 299 298 298 297 296 296 295 295 294 294 294 294 294 294 294 294 295 295 294 294 293 293 293 293 295 296 298 300 303 305 309 311 314 315 316 316 316 316 316 316 318 319 321 323 324 325 326 326 327 328 329 330 331 332 332 331
302 301 301 300 300 300 299 299 298 297 297 296 295 295 294 294 294 294 294 293 293 293 293 294 294 293 293 292 292 291 292 293 294 296 299 301 303 306 309 312 315 317 316 315 315 316 316 317 317 317 319 321 322 323 325 326 326 327 328 330 331 331 331
301 301 301 300 300 300 299 298 298 297 296 296 295 294 294 294 294 294 293 292 292 292 292 293 292 292 291 291 290 290 291 292 293 294 296 299 302 304 306 309 312 313 313 312 313 314 314 315 315 314 316 318 320 321 322 322 323 324 326 327 329 330 332
302 302 301 300 300 299 299 298 298 297 296 295 295 294 294 294 293 293 292 291 291 291 291 291 291 291 290 290 290 290 292 293 294 294 294 297 300 303 305 306 308 308 309 309 310 311 312 312 313 313 314 316 317 318 319 320 320 322 324 325 327 329 330
302 302 302 300 299 299 299 298 298 297 296 295 294 294 293 293 292 291 291 291 290 291 290 290 290 290 289 289 290 291 293 295 297 298 297 297 299 302 303 303 303 304 305 306 306 308 309 309 310 311 312 314 315 316 317 317 318 320 322 323 325 327 328